NIMIQ 2

Last updated on Tue Sep 22 2026 00:03:10 GMT+0000 (Coordinated Universal Time)

1 27632U 02062A 26264.50629675 -.00000068 00000+0 00000+0 0 9993 2 27632 9.6636 55.8471 0005820 120.5390 257.0685 1.00272853 45153
UTC large
Height (km)
Speed (km/s)
/
Latitude / Longitude
Inclination (degrees)
Orbital Period (minutes)
Azimuth
Elevation
Range (km)
Doppler Factor

Next 0 passes for location: London (51.5072 / 0.1276)

No passes found over London.
NIMIQ 2